Flag for U.S.A. Weather past 2 weeks in Durham, North Carolina, U.S.A.

Now
59 °F

Passing clouds.


Feels Like: 60 °F
Forecast: 54 / 68 °F
Wind: 3 mph from North

Location: Raleigh-Durham International Airport

Current Time: Apr 21, 2015 at 5:55:53 AM

Latest Report: Apr 21, 2015 at 4:51 AM


Visibility: 10 mi

Pressure: 29.78 "Hg

Humidity: 84%

Dew point: 54 °F

Location of DurhamLocation

Historic Weather in Durham — Graph

°F

Durham temperature yesterday

Maximum temperature yesterday: 77 °F (at 12:51 PM)
Minimum temperature yesterday: 64 °F (at 4:51 AM)
Average temperature yesterday: 69 °F

Past Weeks' High & Low Weather Summary

 TemperatureHumidityPressure
High84 °F (Apr 8, 3:51 PM)97% (Apr 8, 1:51 AM)30.36 "Hg (Apr 8, 1:51 AM)
Low48 °F (Apr 12, 2:51 AM)27% (Apr 11, 4:51 PM)29.64 "Hg (Apr 20, 5:51 PM)
Average66 °F74%30.09 "Hg
* Reported Apr 6 3:51 AM — Apr 21 3:51 AM, Durham, Weather by CustomWeather, © 2015

Note: Actual official high and low records may vary slightly from our data, if they occured in-between our weather recording intervals... More about our weather records

Advertising

Durham weather history for previous 24 hours

 ConditionsComfort  
Time TempWeatherWind HumidityBarometerVisibility
3:51 AM
Tue, Apr 21
61 °FPartly cloudy.5 mph97%29.74 "Hg10 mi
2:51 AM63 °FPassing clouds.5 mph93%29.71 "Hg10 mi
1:51 AM62 °FThunderstorms. Partly cloudy.6 mph96%29.70 "Hg9 mi
1:04 AM63 °FStrong thunderstorms. Fog.10 mph94%29.71 "Hg1 mi
12:51 AM64 °FThunderstorms. Passing clouds.7 mph87%29.67 "Hg9 mi
11:51 PM
Mon, Apr 20
68 °FThunderstorms. Partly cloudy.16 mph84%29.66 "Hg10 mi
10:51 PM67 °FPassing clouds.12 mph85%29.67 "Hg10 mi
9:51 PM67 °FPartly cloudy.12 mph87%29.67 "Hg10 mi
8:51 PM67 °FBroken clouds.7 mph87%29.65 "Hg10 mi
7:51 PM65 °FThunderstorms. Cloudy.8 mph85%29.68 "Hg10 mi
6:51 PM71 °FThunderstorms. Cloudy.13 mph73%29.64 "Hg10 mi
5:51 PM72 °FMore clouds than sun.12 mph71%29.64 "Hg10 mi
4:51 PM73 °FThunderstorms. Mostly cloudy.15 mph69%29.65 "Hg10 mi
3:53 PM75 °FThunderstorms. More clouds than sun.17 mph65%29.66 "Hg10 mi
2:51 PM77 °FMore clouds than sun.12 mph62%29.67 "Hg10 mi
1:51 PM77 °FBroken clouds.18 mph60%29.70 "Hg10 mi
12:51 PM77 °FPartly sunny.18 mph62%29.71 "Hg10 mi
11:51 AM74 °FBroken clouds.15 mph69%29.74 "Hg10 mi
10:51 AM72 °FScattered clouds.10 mph73%29.73 "Hg10 mi
9:51 AM69 °FPartly sunny.7 mph81%29.73 "Hg10 mi
8:51 AM66 °FPartly sunny.16 mph90%29.74 "Hg10 mi
7:51 AM65 °FBroken clouds.10 mph91%29.75 "Hg10 mi
6:51 AM64 °FPassing clouds.9 mph94%29.74 "Hg10 mi
5:51 AM64 °FMostly cloudy.10 mph94%29.73 "Hg10 mi
Weather by CustomWeather, © 2015

See weather overviewHow to use our weather pages